Location: Góry Miechowskie
(50.3599°N, 20.1803°E)
Time: 07:47:14
(UTC+00:00)

A-11 Canister half - Pass Details

Date: 19 September 2024
Orbit: 1515 x 1684 km, 47.2° (Epoch: 05 October)

Event Time Altitude Azimuth Distance (km) Brightness Sun altitude
Rises 21:04:39 0° 283° (WNW) 4,684 12.0 -35.3°
Reaches altitude 10° 21:07:46 10° 279° (W) 3,690 11.3 -35.5°
Enters shadow 21:14:44 48° 243° (WSW) 1,915 9.3 -36.0°
Maximum altitude 21:16:40 55° 205° (SSW) 1,779 - -36.1°
Drops below altitude 10° 21:25:35 10° 132° (SE) 3,690 - -36.7°
Sets 21:28:42 0° 128° (SE) 4,684 - -36.8°
